Time,TemperatureF,DewpointF,PressureIn,WindDirection,WindDirectionDegrees,WindSpeedMPH,WindSpeedGustMPH,Humidity,HourlyPrecipIn,Conditions,Clouds,dailyrainin,SoftwareType,DateUTC
2014-09-19 00:03:00,52.3,52.0,30.27,NNE,22,0.0,0.0,100,0.00,,,0.00,Rainwise IP-100,2014-09-19 04:03:00,
2014-09-19 00:08:00,52.4,52.0,30.27,NNE,22,0.0,0.0,100,0.00,,,0.00,Rainwise IP-100,2014-09-19 04:08:00,
2014-09-19 00:13:00,52.4,52.0,30.27,NNE,22,0.0,0.0,100,0.00,,,0.00,Rainwise IP-100,2014-09-19 04:13:00,
2014-09-19 00:19:00,52.4,52.0,30.27,WNW,292,0.0,1.0,100,0.00,,,0.00,Rainwise IP-100,2014-09-19 04:19:00,
2014-09-19 00:24:00,52.2,52.0,30.27,WNW,292,0.0,0.0,100,0.00,,,0.00,Rainwise IP-100,2014-09-19 04:24:00,
2014-09-19 00:29:00,52.1,52.0,30.27,WNW,292,0.0,0.0,100,0.00,,,0.00,Rainwise IP-100,2014-09-19 04:29:00,
2014-09-19 00:34:00,51.9,52.0,30.27,WNW,292,0.0,0.0,100,0.00,,,0.00,Rainwise IP-100,2014-09-19 04:34:00,
2014-09-19 00:39:00,51.9,52.0,30.27,WNW,292,0.0,0.0,100,0.00,,,0.00,Rainwise IP-100,2014-09-19 04:39:00,
2014-09-19 00:44:00,51.8,52.0,30.27,WNW,292,0.0,0.0,100,0.00,,,0.00,Rainwise IP-100,2014-09-19 04:44:00,
2014-09-19 00:49:00,51.8,52.0,30.27,WNW,292,0.0,0.0,100,0.00,,,0.00,Rainwise IP-100,2014-09-19 04:49:00,
2014-09-19 00:54:00,51.7,52.0,30.27,WNW,292,0.0,0.0,100,0.00,,,0.00,Rainwise IP-100,2014-09-19 04:54:00,
2014-09-19 01:00:00,51.7,52.0,30.27,WNW,292,0.0,0.0,100,0.00,,,0.00,Rainwise IP-100,2014-09-19 05:00:00,
2014-09-19 01:05:00,51.8,52.0,30.27,WNW,292,0.0,0.0,100,0.00,,,0.00,Rainwise IP-100,2014-09-19 05:05:00,
2014-09-19 01:10:00,51.8,52.0,30.27,WNW,292,0.0,0.0,100,0.00,,,0.00,Rainwise IP-100,2014-09-19 05:10:00,
2014-09-19 01:15:00,52.0,52.0,30.27,WNW,292,0.0,0.0,100,0.00,,,0.00,Rainwise IP-100,2014-09-19 05:15:00,
2014-09-19 01:20:00,52.5,53.0,30.27,South,180,0.0,0.0,100,0.00,,,0.00,Rainwise IP-100,2014-09-19 05:20:00,
2014-09-19 01:25:00,53.0,53.0,30.27,South,180,0.0,1.0,100,0.00,,,0.00,Rainwise IP-100,2014-09-19 05:25:00,
2014-09-19 01:30:00,53.1,53.0,30.27,South,180,0.0,1.0,100,0.00,,,0.00,Rainwise IP-100,2014-09-19 05:30:00,
2014-09-19 01:36:00,53.0,53.0,30.27,South,180,0.0,1.0,100,0.00,,,0.00,Rainwise IP-100,2014-09-19 05:36:00,
2014-09-19 01:41:00,53.1,53.0,30.27,South,180,0.0,0.0,100,0.00,,,0.00,Rainwise IP-100,2014-09-19 05:41:00,
2014-09-19 01:46:00,53.3,53.0,30.27,South,180,0.0,0.0,100,0.00,,,0.00,Rainwise IP-100,2014-09-19 05:46:00,
2014-09-19 01:51:00,53.4,53.0,30.27,South,180,0.0,1.0,100,0.00,,,0.00,Rainwise IP-100,2014-09-19 05:51:00,
2014-09-19 01:56:00,53.5,53.0,30.27,South,180,0.0,1.0,100,0.00,,,0.00,Rainwise IP-100,2014-09-19 05:56:00,
2014-09-19 02:01:00,53.4,53.0,30.27,South,180,0.0,1.0,100,0.00,,,0.00,Rainwise IP-100,2014-09-19 06:01:00,
2014-09-19 02:03:00,53.4,53.0,30.27,South,180,0.0,1.0,100,0.00,,,0.00,Rainwise IP-100,2014-09-19 06:03:00,
2014-09-19 02:08:00,53.6,53.0,30.27,South,180,0.0,1.0,100,0.00,,,0.00,Rainwise IP-100,2014-09-19 06:08:00,
2014-09-19 02:13:00,53.8,53.0,30.28,South,180,0.0,1.0,100,0.00,,,0.00,Rainwise IP-100,2014-09-19 06:13:00,
2014-09-19 02:18:00,53.8,53.0,30.27,South,180,0.0,0.0,100,0.00,,,0.00,Rainwise IP-100,2014-09-19 06:18:00,
2014-09-19 02:24:00,53.7,53.0,30.27,South,180,0.0,0.0,100,0.00,,,0.00,Rainwise IP-100,2014-09-19 06:24:00,
2014-09-19 02:29:00,53.7,53.0,30.27,South,180,0.0,0.0,100,0.00,,,0.00,Rainwise IP-100,2014-09-19 06:29:00,
2014-09-19 02:34:00,53.8,53.0,30.28,South,180,1.2,2.0,100,0.00,,,0.00,Rainwise IP-100,2014-09-19 06:34:00,
2014-09-19 02:39:00,53.9,54.0,30.27,South,180,1.4,2.0,100,0.00,,,0.00,Rainwise IP-100,2014-09-19 06:39:00,
2014-09-19 02:44:00,54.0,54.0,30.27,South,180,0.0,1.0,100,0.00,,,0.00,Rainwise IP-100,2014-09-19 06:44:00,
2014-09-19 02:49:00,54.0,54.0,30.27,South,180,1.4,1.4,100,0.00,,,0.00,Rainwise IP-100,2014-09-19 06:49:00,
2014-09-19 02:54:00,54.1,54.0,30.27,South,180,0.0,1.0,100,0.00,,,0.00,Rainwise IP-100,2014-09-19 06:54:00,
2014-09-19 02:59:00,54.1,54.0,30.27,South,180,0.0,1.0,100,0.00,,,0.00,Rainwise IP-100,2014-09-19 06:59:00,
2014-09-19 03:05:00,53.9,54.0,30.27,South,180,0.0,1.0,100,0.00,,,0.00,Rainwise IP-100,2014-09-19 07:05:00,
2014-09-19 03:10:00,53.8,53.0,30.27,ESE,112,0.0,1.0,100,0.00,,,0.00,Rainwise IP-100,2014-09-19 07:10:00,
2014-09-19 03:15:00,53.7,53.0,30.27,ESE,112,0.0,1.0,100,0.00,,,0.00,Rainwise IP-100,2014-09-19 07:15:00,
2014-09-19 03:20:00,53.8,53.0,30.27,ESE,112,0.0,1.0,100,0.00,,,0.00,Rainwise IP-100,2014-09-19 07:20:00,
2014-09-19 03:25:00,53.8,53.0,30.27,ESE,112,0.0,0.0,100,0.00,,,0.00,Rainwise IP-100,2014-09-19 07:25:00,
2014-09-19 03:30:00,53.7,53.0,30.27,ESE,112,0.0,0.0,100,0.00,,,0.00,Rainwise IP-100,2014-09-19 07:30:00,
2014-09-19 03:35:00,53.8,53.0,30.27,ESE,112,0.0,1.0,100,0.00,,,0.00,Rainwise IP-100,2014-09-19 07:35:00,
2014-09-19 03:41:00,53.9,54.0,30.27,ESE,112,0.0,0.0,100,0.00,,,0.00,Rainwise IP-100,2014-09-19 07:41:00,
2014-09-19 03:46:00,53.9,54.0,30.27,ESE,112,0.0,0.0,100,0.00,,,0.00,Rainwise IP-100,2014-09-19 07:46:00,
2014-09-19 03:51:00,54.0,54.0,30.27,ESE,112,0.0,0.0,100,0.00,,,0.00,Rainwise IP-100,2014-09-19 07:51:00,
2014-09-19 03:56:00,54.0,54.0,30.27,ESE,112,0.0,1.0,100,0.00,,,0.00,Rainwise IP-100,2014-09-19 07:56:00,
2014-09-19 04:01:00,54.1,54.0,30.27,ESE,112,0.0,1.0,100,0.00,,,0.00,Rainwise IP-100,2014-09-19 08:01:00,
2014-09-19 04:06:00,54.1,54.0,30.27,ESE,112,1.4,1.4,100,0.00,,,0.00,Rainwise IP-100,2014-09-19 08:06:00,
2014-09-19 04:11:00,54.0,54.0,30.27,ESE,112,0.0,1.0,100,0.00,,,0.00,Rainwise IP-100,2014-09-19 08:11:00,
2014-09-19 04:16:00,54.0,54.0,30.27,ESE,112,1.2,1.2,100,0.00,,,0.00,Rainwise IP-100,2014-09-19 08:16:00,
2014-09-19 04:22:00,54.0,54.0,30.27,ESE,112,0.0,1.0,100,0.00,,,0.00,Rainwise IP-100,2014-09-19 08:22:00,
2014-09-19 04:27:00,54.0,54.0,30.28,ESE,112,0.0,1.0,100,0.00,,,0.00,Rainwise IP-100,2014-09-19 08:27:00,
2014-09-19 04:32:00,54.0,54.0,30.27,South,180,1.6,2.0,100,0.00,,,0.00,Rainwise IP-100,2014-09-19 08:32:00,
2014-09-19 04:37:00,54.0,54.0,30.28,South,180,1.2,2.0,100,0.00,,,0.00,Rainwise IP-100,2014-09-19 08:37:00,
2014-09-19 04:42:00,54.0,54.0,30.28,South,180,1.4,2.0,100,0.00,,,0.00,Rainwise IP-100,2014-09-19 08:42:00,
2014-09-19 04:47:00,54.2,54.0,30.28,South,180,0.0,2.0,100,0.00,,,0.00,Rainwise IP-100,2014-09-19 08:47:00,
2014-09-19 04:52:00,54.4,54.0,30.28,South,180,1.4,2.0,100,0.00,,,0.00,Rainwise IP-100,2014-09-19 08:52:00,
2014-09-19 04:58:00,54.6,54.0,30.28,South,180,1.4,2.0,100,0.00,,,0.00,Rainwise IP-100,2014-09-19 08:58:00,
2014-09-19 05:03:00,54.7,54.0,30.28,South,180,0.0,1.0,100,0.00,,,0.00,Rainwise IP-100,2014-09-19 09:03:00,
2014-09-19 05:08:00,54.8,54.0,30.28,South,180,0.0,1.0,100,0.00,,,0.00,Rainwise IP-100,2014-09-19 09:08:00,
2014-09-19 05:13:00,54.9,55.0,30.28,South,180,0.0,1.0,100,0.00,,,0.00,Rainwise IP-100,2014-09-19 09:13:00,
2014-09-19 05:18:00,55.0,55.0,30.28,South,180,0.0,1.0,100,0.00,,,0.00,Rainwise IP-100,2014-09-19 09:18:00,
2014-09-19 05:23:00,55.1,55.0,30.29,South,180,0.0,1.0,100,0.00,,,0.00,Rainwise IP-100,2014-09-19 09:23:00,
2014-09-19 05:28:00,55.2,55.0,30.29,South,180,1.9,2.0,100,0.00,,,0.00,Rainwise IP-100,2014-09-19 09:28:00,
2014-09-19 05:33:00,55.3,55.0,30.29,South,180,0.0,1.0,100,0.00,,,0.00,Rainwise IP-100,2014-09-19 09:33:00,
2014-09-19 05:39:00,55.4,55.0,30.29,South,180,1.4,1.4,100,0.00,,,0.00,Rainwise IP-100,2014-09-19 09:39:00,
2014-09-19 05:44:00,55.4,55.0,30.29,South,180,0.0,1.0,100,0.00,,,0.00,Rainwise IP-100,2014-09-19 09:44:00,
2014-09-19 05:49:00,55.4,55.0,30.29,South,180,0.0,1.0,100,0.00,,,0.00,Rainwise IP-100,2014-09-19 09:49:00,
2014-09-19 05:54:00,55.4,55.0,30.29,South,180,0.0,1.0,100,0.00,,,0.00,Rainwise IP-100,2014-09-19 09:54:00,
2014-09-19 05:59:00,55.4,55.0,30.29,South,180,0.0,1.0,100,0.00,,,0.00,Rainwise IP-100,2014-09-19 09:59:00,
2014-09-19 06:04:00,55.4,55.0,30.30,South,180,0.0,1.0,100,0.00,,,0.00,Rainwise IP-100,2014-09-19 10:04:00,
2014-09-19 06:09:00,55.4,55.0,30.30,South,180,1.2,1.2,100,0.00,,,0.00,Rainwise IP-100,2014-09-19 10:09:00,
2014-09-19 06:15:00,55.3,55.0,30.30,South,180,0.0,1.0,100,0.00,,,0.00,Rainwise IP-100,2014-09-19 10:15:00,
2014-09-19 06:20:00,55.2,55.0,30.30,South,180,0.0,1.0,100,0.00,,,0.00,Rainwise IP-100,2014-09-19 10:20:00,
2014-09-19 06:25:00,55.0,55.0,30.30,South,180,1.2,1.2,100,0.00,,,0.00,Rainwise IP-100,2014-09-19 10:25:00,
2014-09-19 06:30:00,54.9,55.0,30.29,South,180,1.4,1.4,100,0.00,,,0.00,Rainwise IP-100,2014-09-19 10:30:00,
2014-09-19 06:35:00,54.8,54.0,30.30,South,180,2.1,2.1,100,0.00,,,0.00,Rainwise IP-100,2014-09-19 10:35:00,
2014-09-19 06:40:00,54.6,54.0,30.30,South,180,2.1,2.1,100,0.00,,,0.00,Rainwise IP-100,2014-09-19 10:40:00,
2014-09-19 06:45:00,54.6,54.0,30.30,South,180,1.6,2.0,100,0.00,,,0.00,Rainwise IP-100,2014-09-19 10:45:00,
2014-09-19 06:50:00,54.6,54.0,30.30,South,180,1.4,2.0,100,0.00,,,0.00,Rainwise IP-100,2014-09-19 10:50:00,
2014-09-19 06:53:00,54.7,54.0,30.30,ESE,112,1.4,2.0,100,0.00,,,0.00,Rainwise IP-100,2014-09-19 10:53:00,
2014-09-19 06:58:00,54.8,54.0,30.30,ESE,112,0.0,2.0,100,0.00,,,0.00,Rainwise IP-100,2014-09-19 10:58:00,
2014-09-19 07:03:00,54.8,54.0,30.31,ESE,112,0.0,1.0,100,0.00,,,0.00,Rainwise IP-100,2014-09-19 11:03:00,
2014-09-19 07:08:00,54.8,54.0,30.31,ESE,112,0.0,1.0,100,0.00,,,0.00,Rainwise IP-100,2014-09-19 11:08:00,
2014-09-19 07:14:00,54.7,54.0,30.31,ESE,112,0.0,1.0,100,0.00,,,0.00,Rainwise IP-100,2014-09-19 11:14:00,
2014-09-19 07:19:00,54.7,54.0,30.31,ESE,112,1.2,1.2,100,0.00,,,0.00,Rainwise IP-100,2014-09-19 11:19:00,
2014-09-19 07:24:00,54.8,54.0,30.31,ESE,112,0.0,1.0,100,0.00,,,0.00,Rainwise IP-100,2014-09-19 11:24:00,
2014-09-19 07:29:00,55.0,55.0,30.31,ESE,112,0.0,1.0,100,0.00,,,0.00,Rainwise IP-100,2014-09-19 11:29:00,
2014-09-19 07:34:00,55.1,55.0,30.32,ESE,112,0.0,0.0,100,0.00,,,0.00,Rainwise IP-100,2014-09-19 11:34:00,
2014-09-19 07:39:00,55.2,55.0,30.32,ESE,112,0.0,1.0,100,0.00,,,0.00,Rainwise IP-100,2014-09-19 11:39:00,
2014-09-19 07:44:00,55.1,55.0,30.32,ESE,112,0.0,1.0,100,0.00,,,0.00,Rainwise IP-100,2014-09-19 11:44:00,
2014-09-19 07:50:00,55.2,55.0,30.32,ESE,112,0.0,0.0,100,0.00,,,0.00,Rainwise IP-100,2014-09-19 11:50:00,
2014-09-19 07:55:00,55.1,55.0,30.32,ESE,112,0.0,0.0,100,0.00,,,0.00,Rainwise IP-100,2014-09-19 11:55:00,
2014-09-19 08:00:00,55.0,55.0,30.32,ESE,112,0.0,0.0,100,0.00,,,0.00,Rainwise IP-100,2014-09-19 12:00:00,
2014-09-19 08:05:00,55.0,55.0,30.32,ESE,112,0.0,1.0,100,0.00,,,0.00,Rainwise IP-100,2014-09-19 12:05:00,
2014-09-19 08:10:00,54.9,55.0,30.32,ESE,112,0.0,1.0,100,0.00,,,0.00,Rainwise IP-100,2014-09-19 12:10:00,
2014-09-19 08:15:00,54.8,54.0,30.32,ESE,112,0.0,1.0,100,0.00,,,0.00,Rainwise IP-100,2014-09-19 12:15:00,
2014-09-19 08:20:00,54.8,54.0,30.32,ESE,112,0.0,2.0,100,0.00,,,0.00,Rainwise IP-100,2014-09-19 12:20:00,
2014-09-19 08:25:00,54.9,55.0,30.33,South,180,0.0,2.0,100,0.00,,,0.00,Rainwise IP-100,2014-09-19 12:25:00,
2014-09-19 08:31:00,55.1,55.0,30.32,South,180,0.0,1.0,100,0.00,,,0.00,Rainwise IP-100,2014-09-19 12:31:00,
2014-09-19 08:36:00,55.4,55.0,30.33,ESE,112,1.6,2.0,100,0.00,,,0.00,Rainwise IP-100,2014-09-19 12:36:00,
2014-09-19 08:41:00,55.8,56.0,30.33,ESE,112,1.6,2.0,100,0.00,,,0.00,Rainwise IP-100,2014-09-19 12:41:00,
2014-09-19 08:46:00,56.3,56.0,30.33,South,180,1.4,3.0,100,0.00,,,0.00,Rainwise IP-100,2014-09-19 12:46:00,
2014-09-19 08:51:00,56.6,56.0,30.33,ESE,112,1.6,3.0,99,0.00,,,0.00,Rainwise IP-100,2014-09-19 12:51:00,
2014-09-19 08:56:00,56.8,56.0,30.33,South,180,1.9,2.0,99,0.00,,,0.00,Rainwise IP-100,2014-09-19 12:56:00,
2014-09-19 09:01:00,57.0,56.0,30.33,ESE,112,2.6,3.0,98,0.00,,,0.00,Rainwise IP-100,2014-09-19 13:01:00,
2014-09-19 09:07:00,57.2,56.0,30.33,ESE,112,0.0,3.0,98,0.00,,,0.00,Rainwise IP-100,2014-09-19 13:07:00,
2014-09-19 09:12:00,57.1,56.0,30.33,South,180,2.1,3.0,98,0.00,,,0.00,Rainwise IP-100,2014-09-19 13:12:00,
2014-09-19 09:17:00,56.9,56.0,30.33,ESE,112,2.6,3.0,98,0.00,,,0.00,Rainwise IP-100,2014-09-19 13:17:00,
2014-09-19 09:22:00,56.6,56.0,30.33,ESE,112,3.7,4.0,98,0.00,,,0.00,Rainwise IP-100,2014-09-19 13:22:00,
2014-09-19 09:27:00,56.4,56.0,30.34,ESE,112,1.6,3.0,98,0.00,,,0.00,Rainwise IP-100,2014-09-19 13:27:00,
2014-09-19 09:32:00,56.4,56.0,30.34,ESE,112,1.2,3.0,99,0.00,,,0.00,Rainwise IP-100,2014-09-19 13:32:00,
2014-09-19 09:37:00,56.5,56.0,30.35,South,180,0.0,3.0,98,0.00,,,0.00,Rainwise IP-100,2014-09-19 13:37:00,
2014-09-19 09:42:00,56.6,56.0,30.34,ESE,112,2.1,3.0,98,0.00,,,0.00,Rainwise IP-100,2014-09-19 13:42:00,
2014-09-19 09:48:00,56.8,56.0,30.34,ESE,112,1.6,3.0,98,0.00,,,0.00,Rainwise IP-100,2014-09-19 13:48:00,
2014-09-19 09:53:00,56.8,56.0,30.35,South,180,1.2,2.0,98,0.00,,,0.00,Rainwise IP-100,2014-09-19 13:53:00,
2014-09-19 09:58:00,57.0,56.0,30.35,ESE,112,0.0,2.0,98,0.00,,,0.00,Rainwise IP-100,2014-09-19 13:58:00,
2014-09-19 10:03:00,57.2,56.0,30.35,ESE,112,1.4,2.0,98,0.00,,,0.00,Rainwise IP-100,2014-09-19 14:03:00,
2014-09-19 10:08:00,57.4,57.0,30.35,ESE,112,0.0,2.0,97,0.00,,,0.00,Rainwise IP-100,2014-09-19 14:08:00,
2014-09-19 10:13:00,57.9,57.0,30.35,South,180,0.0,3.0,97,0.00,,,0.00,Rainwise IP-100,2014-09-19 14:13:00,
2014-09-19 10:18:00,58.3,57.0,30.35,East,90,0.0,2.0,97,0.00,,,0.00,Rainwise IP-100,2014-09-19 14:18:00,
2014-09-19 10:24:00,58.2,57.0,30.35,ESE,112,1.2,2.0,96,0.00,,,0.00,Rainwise IP-100,2014-09-19 14:24:00,
2014-09-19 10:29:00,58.4,57.0,30.35,South,180,0.0,2.0,96,0.00,,,0.00,Rainwise IP-100,2014-09-19 14:29:00,
2014-09-19 10:34:00,58.5,57.0,30.35,South,180,2.1,4.0,95,0.00,,,0.00,Rainwise IP-100,2014-09-19 14:34:00,
2014-09-19 10:39:00,58.5,57.0,30.35,ESE,112,0.0,3.0,94,0.00,,,0.00,Rainwise IP-100,2014-09-19 14:39:00,
2014-09-19 10:44:00,58.6,57.0,30.35,ESE,112,2.1,3.0,94,0.00,,,0.00,Rainwise IP-100,2014-09-19 14:44:00,
2014-09-19 10:49:00,58.8,57.0,30.35,ESE,112,1.2,4.0,94,0.00,,,0.00,Rainwise IP-100,2014-09-19 14:49:00,
2014-09-19 10:54:00,59.2,57.0,30.35,ESE,112,2.1,3.0,93,0.00,,,0.00,Rainwise IP-100,2014-09-19 14:54:00,
2014-09-19 10:59:00,59.5,57.0,30.35,East,90,0.0,4.0,92,0.00,,,0.00,Rainwise IP-100,2014-09-19 14:59:00,
2014-09-19 11:05:00,59.8,56.0,30.35,ESE,112,1.9,5.0,91,0.00,,,0.00,Rainwise IP-100,2014-09-19 15:05:00,
2014-09-19 11:10:00,59.9,57.0,30.35,ESE,112,3.7,4.0,90,0.00,,,0.00,Rainwise IP-100,2014-09-19 15:10:00,
2014-09-19 11:15:00,60.0,57.0,30.35,ESE,112,2.1,4.0,90,0.00,,,0.00,Rainwise IP-100,2014-09-19 15:15:00,
2014-09-19 11:20:00,60.2,56.0,30.35,ESE,112,3.0,5.0,89,0.00,,,0.00,Rainwise IP-100,2014-09-19 15:20:00,
2014-09-19 11:25:00,60.5,57.0,30.35,South,180,3.0,5.0,89,0.00,,,0.00,Rainwise IP-100,2014-09-19 15:25:00,
2014-09-19 11:30:00,60.3,56.0,30.35,ESE,112,0.0,4.0,88,0.00,,,0.00,Rainwise IP-100,2014-09-19 15:30:00,
2014-09-19 11:35:00,60.1,56.0,30.35,East,90,1.4,4.0,88,0.00,,,0.00,Rainwise IP-100,2014-09-19 15:35:00,
2014-09-19 11:41:00,60.5,57.0,30.35,ESE,112,0.0,4.0,88,0.00,,,0.00,Rainwise IP-100,2014-09-19 15:41:00,
2014-09-19 11:46:00,61.1,57.0,30.35,ESE,112,1.9,4.0,88,0.00,,,0.00,Rainwise IP-100,2014-09-19 15:46:00,
2014-09-19 11:51:00,61.3,57.0,30.35,ESE,112,1.4,5.0,87,0.00,,,0.00,Rainwise IP-100,2014-09-19 15:51:00,
2014-09-19 11:56:00,61.0,56.0,30.35,ESE,112,3.5,6.0,86,0.00,,,0.00,Rainwise IP-100,2014-09-19 15:56:00,
2014-09-19 12:01:00,60.8,56.0,30.35,ESE,112,3.5,6.0,85,0.00,,,0.00,Rainwise IP-100,2014-09-19 16:01:00,
2014-09-19 12:06:00,61.1,56.0,30.35,East,90,3.5,4.0,85,0.00,,,0.00,Rainwise IP-100,2014-09-19 16:06:00,
2014-09-19 12:11:00,61.8,57.0,30.35,South,180,1.4,5.0,85,0.00,,,0.00,Rainwise IP-100,2014-09-19 16:11:00,
2014-09-19 12:16:00,62.1,57.0,30.35,ESE,112,2.3,5.0,84,0.00,,,0.00,Rainwise IP-100,2014-09-19 16:16:00,
2014-09-19 12:22:00,62.4,57.0,30.35,ESE,112,4.0,4.0,84,0.00,,,0.00,Rainwise IP-100,2014-09-19 16:22:00,
2014-09-19 12:27:00,62.4,57.0,30.35,ESE,112,1.6,4.0,83,0.00,,,0.00,Rainwise IP-100,2014-09-19 16:27:00,
2014-09-19 12:32:00,62.6,57.0,30.35,East,90,2.3,4.0,83,0.00,,,0.00,Rainwise IP-100,2014-09-19 16:32:00,
2014-09-19 12:37:00,62.6,57.0,30.35,South,180,0.0,4.0,82,0.00,,,0.00,Rainwise IP-100,2014-09-19 16:37:00,
2014-09-19 12:42:00,62.6,56.0,30.35,South,180,2.1,4.0,81,0.00,,,0.00,Rainwise IP-100,2014-09-19 16:42:00,
2014-09-19 12:47:00,62.8,56.0,30.35,South,180,4.4,4.4,81,0.00,,,0.00,Rainwise IP-100,2014-09-19 16:47:00,
2014-09-19 12:52:00,62.4,56.0,30.35,ENE,67,0.0,4.0,81,0.00,,,0.00,Rainwise IP-100,2014-09-19 16:52:00,
2014-09-19 12:58:00,62.2,56.0,30.35,South,180,0.0,2.0,82,0.00,,,0.00,Rainwise IP-100,2014-09-19 16:58:00,
2014-09-19 13:03:00,61.8,56.0,30.36,ESE,112,1.4,2.0,83,0.00,,,0.00,Rainwise IP-100,2014-09-19 17:03:00,
2014-09-19 13:08:00,61.4,57.0,30.35,ESE,112,0.0,1.0,85,0.00,,,0.00,Rainwise IP-100,2014-09-19 17:08:00,
2014-09-19 13:13:00,61.3,56.0,30.35,SSW,202,0.0,3.0,86,0.00,,,0.00,Rainwise IP-100,2014-09-19 17:13:00,
2014-09-19 13:18:00,61.0,57.0,30.35,South,180,0.0,1.0,87,0.06,,,0.01,Rainwise IP-100,2014-09-19 17:18:00,
2014-09-19 13:23:00,60.5,56.0,30.35,South,180,0.0,1.0,87,0.06,,,0.01,Rainwise IP-100,2014-09-19 17:23:00,
2014-09-19 13:28:00,59.8,56.0,30.36,ESE,112,0.0,2.0,90,0.00,,,0.01,Rainwise IP-100,2014-09-19 17:28:00,
2014-09-19 13:33:00,58.9,56.0,30.36,South,180,1.9,2.0,92,0.06,,,0.02,Rainwise IP-100,2014-09-19 17:33:00,
2014-09-19 13:39:00,58.6,57.0,30.35,WNW,292,1.2,2.0,93,0.06,,,0.02,Rainwise IP-100,2014-09-19 17:39:00,
2014-09-19 13:44:00,58.5,57.0,30.36,North,360,0.0,2.0,94,0.06,,,0.03,Rainwise IP-100,2014-09-19 17:44:00,
2014-09-19 13:49:00,58.5,57.0,30.35,ESE,112,0.0,1.0,95,0.06,,,0.03,Rainwise IP-100,2014-09-19 17:49:00,
2014-09-19 13:54:00,59.2,57.0,30.35,East,90,2.6,2.6,96,0.00,,,0.03,Rainwise IP-100,2014-09-19 17:54:00,
2014-09-19 13:59:00,59.8,58.0,30.35,ESE,112,0.0,3.0,97,0.00,,,0.03,Rainwise IP-100,2014-09-19 17:59:00,
2014-09-19 14:04:00,59.9,59.0,30.36,ESE,112,2.3,3.0,97,0.00,,,0.03,Rainwise IP-100,2014-09-19 18:04:00,
2014-09-19 14:09:00,60.0,59.0,30.36,ESE,112,1.9,3.0,96,0.00,,,0.03,Rainwise IP-100,2014-09-19 18:09:00,
2014-09-19 14:14:00,60.1,58.0,30.36,ESE,112,0.0,3.0,95,0.00,,,0.03,Rainwise IP-100,2014-09-19 18:14:00,
2014-09-19 14:19:00,59.9,58.0,30.36,East,90,1.6,3.0,94,0.00,,,0.03,Rainwise IP-100,2014-09-19 18:19:00,
2014-09-19 14:24:00,59.6,57.0,30.36,ESE,112,1.6,3.0,94,0.00,,,0.03,Rainwise IP-100,2014-09-19 18:24:00,
2014-09-19 14:29:00,59.7,57.0,30.35,East,90,0.0,3.0,94,0.00,,,0.03,Rainwise IP-100,2014-09-19 18:29:00,
2014-09-19 14:34:00,59.7,57.0,30.36,ESE,112,1.4,3.0,94,0.00,,,0.03,Rainwise IP-100,2014-09-19 18:34:00,
2014-09-19 14:39:00,59.9,58.0,30.36,ESE,112,1.6,3.0,94,0.00,,,0.03,Rainwise IP-100,2014-09-19 18:39:00,
2014-09-19 14:45:00,59.9,58.0,30.35,ESE,112,1.4,2.0,94,0.00,,,0.03,Rainwise IP-100,2014-09-19 18:45:00,
2014-09-19 14:50:00,59.5,57.0,30.35,ESE,112,1.6,2.0,93,0.00,,,0.03,Rainwise IP-100,2014-09-19 18:50:00,
2014-09-19 14:55:00,59.5,57.0,30.36,East,90,2.1,4.0,93,0.00,,,0.03,Rainwise IP-100,2014-09-19 18:55:00,
2014-09-19 15:00:00,59.5,57.0,30.35,South,180,1.6,4.0,94,0.00,,,0.03,Rainwise IP-100,2014-09-19 19:00:00,
2014-09-19 15:05:00,59.3,57.0,30.35,ESE,112,1.6,4.0,94,0.00,,,0.03,Rainwise IP-100,2014-09-19 19:05:00,
2014-09-19 15:10:00,59.1,57.0,30.35,South,180,2.6,4.0,94,0.00,,,0.03,Rainwise IP-100,2014-09-19 19:10:00,
2014-09-19 15:12:00,59.1,57.0,30.36,ESE,112,2.6,4.0,94,0.00,,,0.03,Rainwise IP-100,2014-09-19 19:12:00,
2014-09-19 15:17:00,58.9,57.0,30.35,ESE,112,2.6,4.0,95,0.00,,,0.03,Rainwise IP-100,2014-09-19 19:17:00,
2014-09-19 15:22:00,58.6,57.0,30.35,South,180,3.5,4.0,95,0.00,,,0.03,Rainwise IP-100,2014-09-19 19:22:00,
2014-09-19 15:27:00,58.3,57.0,30.36,ESE,112,4.0,4.0,95,0.00,,,0.03,Rainwise IP-100,2014-09-19 19:27:00,
2014-09-19 15:32:00,57.7,56.0,30.35,South,180,4.0,6.0,95,0.00,,,0.03,Rainwise IP-100,2014-09-19 19:32:00,
2014-09-19 15:37:00,57.4,56.0,30.35,ESE,112,4.2,4.2,96,0.00,,,0.03,Rainwise IP-100,2014-09-19 19:37:00,
2014-09-19 15:43:00,57.2,56.0,30.35,ESE,112,3.7,6.0,96,0.00,,,0.03,Rainwise IP-100,2014-09-19 19:43:00,
2014-09-19 15:48:00,56.9,56.0,30.35,ESE,112,2.3,5.0,96,0.00,,,0.03,Rainwise IP-100,2014-09-19 19:48:00,
2014-09-19 15:51:00,56.6,56.0,30.35,ESE,112,4.7,5.0,97,0.00,,,0.03,Rainwise IP-100,2014-09-19 19:51:00,
2014-09-19 15:57:00,56.5,55.0,30.35,South,180,4.2,4.2,96,0.00,,,0.03,Rainwise IP-100,2014-09-19 19:57:00,
2014-09-19 16:02:00,56.6,55.0,30.35,South,180,1.4,5.0,96,0.00,,,0.03,Rainwise IP-100,2014-09-19 20:02:00,
2014-09-19 16:07:00,56.6,55.0,30.35,South,180,4.4,5.0,96,0.00,,,0.03,Rainwise IP-100,2014-09-19 20:07:00,
2014-09-19 16:12:00,56.6,55.0,30.35,ESE,112,2.3,4.0,96,0.00,,,0.03,Rainwise IP-100,2014-09-19 20:12:00,
2014-09-19 16:17:00,56.5,55.0,30.36,ESE,112,1.4,5.0,96,0.00,,,0.03,Rainwise IP-100,2014-09-19 20:17:00,
2014-09-19 16:22:00,56.7,55.0,30.35,ESE,112,2.8,4.0,96,0.00,,,0.03,Rainwise IP-100,2014-09-19 20:22:00,
2014-09-19 16:27:00,57.0,56.0,30.36,South,180,2.3,4.0,96,0.00,,,0.03,Rainwise IP-100,2014-09-19 20:27:00,